LAPAN-A2 (40931 NORAD) Tracking and Keplerian Element Data

This shows tracking and keplerian element data for the satellite.

Feedback or suggestion? Click here.




ElementValue
Catalog40931
NameLAPAN-A2
Epoch Orbit37840
Epoch Day270.15481362
Epoch Year2022
RAAN163.5639
Inclination5.9947
Eccentricity0.0012443
Argument of Perigee170.3707
Mean Anonmoly189.6968
Mean Motion14.7686625
Decay Rate9.23E-06
L11 40931U 15052B 22270.15481362 .00000923 00000+0 39181-4 0 9992
L22 40931 5.9947 163.5639 0012443 170.3707 189.6968 14.76866250378409

Live tracking and technical data element details for LAPAN-A2 (NORAD 40931). LAPAN-A2 can be tracked NOW for your location showing map with azimuth and elevation plus other details from your city location.

Track the satellite on the map from your city or location and see movement details for azimuth, elevation, latitude, longitude, range, height, and movement on the map or in text.







IsCatalogInMostPopularTable: catalog: 40931, numindb: 690
Update: records affected: 1



GetName: 40931 LAPAN-A2

Hit Count: updated at: Wed, 28 Sep 2022 22:21:13 GMT